Погода в Шилове

Россия / Псковская область     57°08′29″N   29°53′59″E
темп.,
°C
ветер,
м/с
пор.,
м/с
влажн.,
%
обл.,
%
осадки,
мм/ч
давл.,
гПа
погр.,
м
11 мая, вт
вт1100:00+9ю3991100 0.0 1026165
03:00+7ю249297 0.0 102768
06:00+8ююв3986100 0.0 1026199
09:00+14ю37575 0.0 1027449
12:00+18ююв45445 0.0 1026976
15:00+20ююв35405 0.0 10251197
18:00+19юв35495 0.0 1024989
21:00+12юв22715 0.0 102436
12 мая, ср
ср1200:00+9юв29765 0.0 1025159
03:00+8юв2582100 0.0 102597
06:00+9юв25885 0.0 1025117
09:00+16юв35730 0.0 1025488
12:00+20юв47574 0.0 10231266
15:00+22юв464834 0.0 10221872
18:00+21св355730 0.0 1019930
21:00+16св4127998 0.1 1017353
13 мая, чт
чт1300:00+15в6138571 0.4 1015936
03:00+9юв513863 0.6 1017869
06:00+9вюв4127838 0.0 1017992
09:00+12вюв611685 0.0 1016934
12:00+12вюв51272100 0.0 10151692
15:00+14юв6116890 1.1 10141623
18:00+13ююв4969100 0.4 10141357
21:00+10юв2486100 0.4 101477
14 мая, пт
пт1400:00+8вюв299613 0.0 1013226
03:00+8вюв3119358 0.0 1013300
06:00+10юв4138297 0.0 1013458
09:00+14юв59655 0.0 1012685
12:00+18ююв585147 0.0 10121506
15:00+19ю375453 0.0 10111679
18:00+18в2568100 0.0 1010185
21:00+13вюв27885 0.0 1009158
15 мая, сб
сб1500:00+12вюв259789 0.0 100892
03:00+11вюв239892 0.0 100750
06:00+11юв259943 0.5 1007168
09:00+15ююз4689100 0.5 1007583
12:00+18юз356897 0.3 10071270
15:00+18ююв227560 1.3 1006705
18:00
21:00+12зюз229454 2.5 100714